Probability
0 0 1 0 1 2 2 1 0 0 0 0 0 0 0 0 0 0 0 0 0 1 2 3 2 1 0 0 0 0 0 0 0 0 0 1 3 3 2 2 2 2 2
0 0 1 0 1 2 2 1 0 0 0 0 0 1 1 0 0 0 0 0 0 1 2 3 3 2 1 0 0 0 0 0 0 1 1 2 3 3 1 1 1 1 1
0 0 0 0 0 1 2 2 1 0 0 1 1 2 2 1 0 0 0 0 1 1 3 3 3 3 1 0 0 0 0 0 1 2 3 3 3 2 1 0 0 0 0
1 0 0 0 0 0 1 2 1 1 1 2 3 3 3 2 1 0 0 0 1 2 3 3 3 3 2 0 0 0 1 2 3 3 3 3 2 2 1 0 0 0 0
2 1 0 0 0 0 1 2 3 2 3 3 3 3 3 3 2 1 1 1 2 3 3 3 3 3 1 0 0 1 2 2 3 3 3 2 1 1 0 0 0 0 0
3 2 1 1 1 1 1 3 3 3 4 4 4 3 3 3 3 3 2 2 3 3 3 3 3 2 1 0 1 3 2 1 1 2 3 2 1 1 1 0 0 0 0
2 2 3 3 3 2 3 4 4 3 3 4 3 3 3 3 3 3 3 3 3 3 3 2 2 1 0 1 2 2 1 0 0 1 3 3 3 2 2 1 1 0 0
1 1 3 4 4 3 4 5 5 4 3 3 3 3 3 3 3 3 3 3 3 3 2 1 1 0 1 2 2 1 0 0 1 2 3 3 3 3 3 3 2 1 0
0 0 1 3 3 3 4 6 6 5 4 3 3 3 3 3 4 4 3 3 3 3 2 1 0 1 2 2 1 1 1 2 3 4 4 4 3 3 3 3 3 2 1
0 0 1 2 3 4 5 6 5 5 5 4 4 4 5 5 6 6 4 3 3 3 3 1 1 2 2 1 1 2 2 2 3 3 4 3 3 3 3 3 3 3 3
0 0 1 2 4 5 5 5 4 5 6 6 5 7 8 8 9 8 5 4 3 3 3 3 3 3 2 1 2 2 2 1 1 2 3 3 4 4 4 4 3 3 3
1 0 0 2 5 5 4 4 5 7 9 8 7 9 10 9 9 7 5 4 4 4 4 5 6 5 3 1 2 2 2 2 2 2 3 5 6 6 6 6 5 4 4
2 1 1 4 6 5 3 4 6 8 9 8 8 10 10 9 8 7 5 4 5 5 6 7 7 6 4 3 4 4 4 5 5 5 6 7 9 10 10 9 8 7 7
4 3 3 5 6 5 3 4 6 8 8 8 9 9 9 9 9 8 6 5 6 7 9 9 9 8 7 6 6 6 7 7 8 8 9 9 11 11 11 12 11 9 10
6 6 5 5 5 4 3 4 6 7 9 10 11 10 8 8 8 8 7 6 6 8 9 9 10 9 8 7 6 6 7 8 8 9 9 9 9 9 10 10 10 9 10
8 8 8 7 6 4 3 4 5 6 8 10 11 10 7 6 7 8 7 7 7 8 8 8 7 7 6 6 5 5 6 6 6 6 6 6 6 6 7 7 7 8 9
9 9 9 9 8 7 6 5 5 5 6 7 8 7 5 4 5 6 6 7 7 8 8 7 6 5 4 4 3 3 4 4 5 5 5 5 5 5 5 6 6 7 7
9 8 8 9 8 8 6 5 5 5 5 5 4 4 3 3 3 3 5 6 6 6 5 6 7 6 5 4 3 3 4 4 5 5 5 6 6 6 5 5 5 6 7
9 8 7 7 7 6 5 4 4 4 4 4 3 3 3 2 2 3 3 4 4 3 3 5 7 8 7 5 3 3 4 4 4 4 5 6 8 6 4 3 5 6 6
8 7 6 6 5 4 3 3 3 3 3 3 3 3 2 1 1 3 3 2 2 3 3 4 5 7 8 6 4 3 4 5 4 4 5 6 7 5 2 2 4 5 5
6 6 5 4 4 3 3 3 3 3 3 3 3 2 1 0 1 2 2 1 1 3 3 3 4 6 7 6 4 3 5 7 6 6 6 6 5 2 1 1 3 3 3
2 3 3 3 2 3 3 3 3 3 3 3 3 2 1 0 0 2 3 3 2 3 3 3 4 5 6 6 4 2 3 5 6 7 6 4 3 1 0 0 1 1 1
0 1 1 1 1 1 2 3 3 3 3 3 3 3 2 1 1 1 3 4 3 3 3 4 4 5 6 5 4 3 2 2 3 6 6 3 1 0 0 1 1 1 2
0 0 0 0 0 0 1 2 2 3 3 3 3 3 3 2 1 1 2 3 4 4 4 4 5 5 5 5 4 4 3 2 3 5 6 3 1 1 1 2 2 3 3
0 0 0 0 0 0 0 1 1 1 2 3 3 3 3 2 1 0 0 1 3 3 3 3 3 3 3 3 3 4 4 4 5 6 7 5 3 2 2 2 3 3 3
0 0 0 0 0 0 0 0 0 0 1 3 3 3 3 2 1 0 0 0 1 2 1 1 1 1 1 1 1 2 4 4 5 7 8 8 5 2 1 2 3 3 3
Wind_Speed
3 2 2 3 3 2 2 1 1 1 1 1 1 1 0 1 1 1 2 2 2 1 1 1 2 2 2 1 1 1 2 2 1 1 2 2 2 1 1 1 1 1 1
2 3 3 3 3 3 3 2 1 1 1 1 1 1 1 0 0 1 2 2 2 1 1 2 1 2 2 2 2 1 1 1 1 1 1 2 3 2 1 1 0 1 1
6 4 4 4 3 4 4 3 2 1 1 1 2 2 2 2 2 2 2 2 2 2 2 2 2 1 1 1 1 1 2 0 1 1 1 1 1 2 2 1 1 1 1
4 4 4 4 4 4 3 3 2 2 2 2 2 2 2 1 0 0 1 2 2 2 2 1 2 1 1 1 0 1 1 1 0 0 0 1 1 0 2 2 2 2 2
6 6 5 5 4 3 3 3 2 2 2 2 3 3 1 1 0 1 2 2 2 2 2 2 2 1 1 1 1 1 1 1 1 0 0 0 1 1 1 2 3 3 2
6 5 4 4 3 3 3 3 2 2 2 3 3 3 3 2 1 1 1 1 1 2 2 2 2 1 1 1 1 1 1 0 1 1 1 1 1 1 1 1 2 2 2
5 5 5 4 4 4 4 3 3 3 3 3 3 3 3 3 3 2 1 0 0 1 1 2 1 1 1 1 1 1 0 0 0 0 0 0 0 1 1 1 1 2 2
4 5 6 6 5 5 5 4 4 4 3 3 3 3 3 2 2 2 1 1 1 1 0 0 1 1 1 1 0 1 0 1 0 1 1 0 0 0 1 1 1 1 2
4 5 5 5 5 5 5 5 5 4 3 3 3 3 3 3 2 2 1 1 1 1 0 0 0 1 1 0 1 1 1 1 1 1 1 0 0 0 0 1 1 1 1
3 3 4 4 4 5 4 4 4 4 4 3 3 3 3 3 2 2 2 1 1 1 0 0 0 1 1 0 1 0 1 1 1 0 1 0 1 0 0 1 1 1 2
3 3 3 3 2 2 2 2 3 3 2 3 2 2 2 2 2 2 2 1 1 1 1 1 0 0 0 0 0 0 0 1 1 1 1 1 1 1 0 0 1 1 1
2 2 2 2 2 2 2 2 3 3 3 2 2 2 2 2 2 2 1 1 1 1 1 1 0 0 1 0 0 1 0 0 1 1 1 1 1 1 1 0 1 1 2
3 3 2 2 2 1 1 1 1 2 2 2 2 2 2 2 2 2 2 2 2 1 1 1 1 1 1 0 1 1 1 1 1 1 1 2 1 1 1 1 1 1 1
3 3 2 1 1 1 1 1 0 0 1 2 2 2 2 2 2 2 2 2 2 1 1 1 1 1 1 1 1 1 1 1 1 1 2 2 1 2 2 1 2 1 1
3 3 2 1 1 2 1 1 1 1 1 1 1 1 1 1 0 0 1 1 1 1 1 1 1 1 1 1 1 1 1 1 1 2 2 2 2 2 1 1 1 1 1
3 2 2 2 1 1 1 2 2 1 2 2 1 0 1 1 1 1 0 1 1 1 1 1 1 1 1 0 1 1 1 1 1 2 3 2 3 3 3 2 2 2 2
3 3 2 2 2 1 1 1 1 2 2 2 1 1 1 1 0 1 1 0 0 0 0 1 1 1 2 1 1 1 1 1 2 2 2 2 3 3 2 3 3 2 2
3 2 2 2 2 2 1 1 2 2 2 2 1 1 1 1 0 1 0 0 0 0 0 1 1 1 2 1 1 1 1 1 2 2 2 2 3 3 2 2 2 3 3
3 2 2 2 2 2 1 2 2 2 2 1 1 0 0 0 1 0 0 1 1 0 1 1 1 1 2 2 1 1 1 1 2 2 2 2 3 3 1 1 2 4 4
3 3 3 3 3 1 2 3 2 2 1 1 1 1 0 0 1 1 1 1 1 1 1 1 1 2 2 2 1 1 0 1 2 2 3 3 3 3 2 1 2 4 5
4 4 4 3 2 2 2 2 2 1 2 1 1 1 1 0 0 0 0 1 0 0 0 1 2 2 2 2 2 1 1 2 2 2 2 2 3 3 3 2 3 5 5
4 4 4 3 2 2 2 2 1 1 1 1 2 2 2 1 1 0 0 0 1 1 1 1 2 2 2 2 3 3 3 2 2 2 3 3 4 4 4 3 4 6 4
3 3 4 3 2 1 2 1 1 1 1 2 2 2 2 2 1 0 0 0 0 1 1 1 1 2 2 2 4 3 3 2 2 2 4 4 5 5 3 4 5 3 2
3 3 3 3 1 1 1 1 1 1 2 2 2 2 2 2 2 1 0 0 1 1 2 2 2 2 2 2 2 2 2 2 2 3 4 4 4 3 4 4 3 2 2
2 3 3 2 1 1 2 1 1 1 2 1 1 2 1 1 1 1 1 1 2 2 3 2 2 2 3 4 4 2 2 2 2 2 2 2 3 3 3 3 2 2 2
3 3 2 1 1 1 1 1 1 1 1 0 1 1 1 1 1 1 2 2 2 2 3 3 3 2 4 4 3 3 3 3 1 1 1 2 2 3 4 4 3 3 2
Wind_Direction
207 180 170 152 142 140 133 135 117 94 91 83 93 77 25 9 15 14 21 33 41 53 78 75 65 69 76 73 69 61 55 34 26 43 8 4 21 20 356 342 335 299 274
192 185 175 163 167 171 170 166 163 143 132 139 142 137 123 59 27 6 18 28 39 40 72 77 76 73 77 62 64 75 62 26 38 74 47 1 352 357 14 7 334 310 304
200 193 188 191 182 188 190 188 187 165 142 122 96 74 51 31 24 19 12 8 33 43 54 79 92 85 97 96 72 93 104 68 17 60 115 117 285 317 333 347 354 331 317
193 191 192 195 198 207 194 189 180 163 159 139 129 127 123 124 298 346 5 7 24 38 46 61 79 80 90 108 131 108 112 127 57 20 78 164 174 211 320 328 336 329 317
190 190 195 196 198 197 190 194 183 180 174 160 158 152 147 159 43 35 28 18 17 29 35 50 61 59 53 49 57 74 91 133 157 171 178 133 94 142 187 300 323 332 322
194 195 196 189 192 191 188 185 184 205 190 172 166 166 166 155 120 57 34 11 14 19 26 50 47 36 30 28 52 72 102 120 140 140 149 157 154 195 187 238 291 308 313
195 193 192 195 196 196 195 188 189 213 203 183 188 190 186 177 178 187 192 219 6 1 359 29 34 12 6 27 46 68 43 50 79 106 186 177 204 171 173 188 264 294 307
194 202 202 198 197 199 199 194 197 213 208 195 206 203 192 184 195 200 191 198 214 238 283 25 6 352 9 39 54 62 21 46 20 360 25 51 339 163 169 178 180 295 311
193 202 197 196 196 198 201 196 199 208 209 204 205 207 198 192 201 202 192 203 220 229 235 350 345 340 355 23 71 56 4 47 17 348 360 15 337 32 213 190 174 186 275
176 185 189 195 196 197 199 189 193 202 205 203 207 203 202 200 198 185 199 209 220 241 262 306 305 344 349 10 85 51 355 36 351 351 27 338 299 282 218 190 184 184 200
176 170 179 185 172 158 166 182 192 197 201 200 193 188 186 182 180 188 209 211 209 205 235 255 270 295 303 300 113 256 3 49 360 354 16 331 332 328 310 209 181 189 191
139 130 133 115 111 132 163 183 193 196 206 192 177 185 183 167 179 197 207 185 190 193 203 214 191 257 276 266 188 241 269 198 282 306 344 318 336 343 313 272 242 228 211
94 79 77 89 102 110 136 178 195 202 196 166 168 179 196 192 202 208 195 176 180 174 180 176 182 224 236 230 227 215 228 227 244 262 264 283 298 313 309 293 274 262 236
105 93 80 70 88 91 95 92 39 124 170 162 169 188 217 213 212 208 187 176 176 179 200 208 209 211 212 210 211 192 216 248 280 278 263 261 253 260 271 279 273 268 264
115 117 119 108 70 62 53 56 44 39 74 108 129 218 245 229 166 175 164 149 171 202 206 200 223 232 214 213 194 201 221 249 293 299 288 276 268 246 247 263 259 239 244
149 141 127 110 95 83 70 68 55 43 73 88 75 8 39 64 78 66 81 131 131 190 184 209 234 247 258 249 168 176 222 252 272 292 302 299 301 295 287 278 261 226 219
157 147 144 138 134 132 119 111 96 81 75 71 56 47 64 79 87 103 81 108 176 97 35 265 252 263 267 277 258 228 215 240 261 277 298 307 315 310 304 313 308 291 264
146 142 132 117 103 84 73 85 84 80 75 69 65 72 108 130 135 127 155 205 102 128 262 295 278 278 294 304 287 290 255 267 279 278 274 280 297 300 296 303 315 307 293
140 136 124 114 101 96 103 92 74 77 78 64 34 343 134 180 174 176 229 204 163 172 284 294 286 281 292 307 311 28 305 300 296 293 288 277 285 304 305 294 301 307 306
103 101 91 88 88 80 94 91 72 59 45 3 334 337 6 178 220 224 221 212 185 221 263 290 285 274 279 294 279 183 231 300 303 306 302 295 290 305 303 258 274 289 294
104 98 95 95 95 95 100 92 64 6 330 348 12 21 33 21 236 211 210 171 156 131 290 303 305 288 286 298 285 256 225 248 279 293 299 298 307 299 294 275 262 267 279
102 100 98 87 76 90 105 91 32 333 352 13 28 28 23 6 17 61 8 126 154 171 257 301 314 309 305 298 290 279 253 242 248 271 282 290 300 296 293 283 278 280 287
112 102 104 96 66 71 105 94 338 358 32 33 27 23 18 15 9 354 310 25 169 206 256 253 275 295 302 300 295 287 277 259 252 274 289 300 307 307 298 291 290 286 273
107 103 100 93 54 17 42 53 350 34 60 45 21 15 19 4 2 354 331 218 228 233 244 248 262 279 294 298 298 295 288 290 294 303 315 319 320 309 302 306 304 285 270
106 108 112 117 113 32 19 13 21 58 58 36 11 8 1 351 344 334 301 256 246 230 233 244 243 261 282 285 275 261 274 267 271 300 334 344 338 331 322 313 306 300 300
117 111 108 104 54 51 13 354 5 58 96 29 338 333 326 330 328 331 343 342 280 284 262 248 239 259 266 288 299 297 293 285 260 122 316 310 309 304 306 306 307 300 294